Wind_Speed
23 22 21 18 17 16 12 9 6 5 4 6 9 14 17 21 23 25 25 27 32 20 21 17 18 18 20 24 28 28 29 25 24 24 23 27 27 25 26 29 33 33 34
21 20 19 17 16 14 11 8 7 6 5 6 11 14 17 20 23 27 29 30 26 21 16 14 15 19 22 25 27 28 23 21 20 22 25 26 26 28 28 29 31 33 34
21 19 19 18 17 15 11 10 8 4 5 8 11 14 17 21 25 27 26 24 22 18 16 16 17 19 21 25 24 21 20 19 20 23 26 26 26 24 24 27 29 32 34
21 21 21 20 18 18 14 10 7 4 6 9 12 16 20 23 23 21 20 21 17 12 15 16 15 19 21 19 18 19 19 19 21 24 25 25 24 24 26 26 28 32 29
23 26 23 22 21 18 14 9 6 5 7 11 14 17 20 21 19 17 18 14 11 10 14 12 13 17 18 17 17 18 19 20 20 24 24 24 23 24 25 29 31 34 28
30 25 24 23 20 16 12 9 7 7 9 13 17 17 15 17 20 18 15 12 11 13 11 14 18 20 18 17 18 17 19 20 21 24 23 23 23 24 28 31 34 36 35
26 25 23 21 17 14 12 10 8 9 12 15 17 14 13 16 20 16 11 11 13 12 13 17 19 19 15 16 17 18 19 20 22 22 22 21 21 24 28 29 33 36 39
24 23 22 19 16 14 12 11 10 11 14 16 17 12 13 15 16 12 9 12 12 11 14 18 19 15 15 16 17 18 19 20 21 20 20 20 22 25 27 30 32 35 36
22 22 21 18 16 15 13 13 13 14 16 16 15 12 15 15 13 10 9 12 10 12 16 18 17 14 15 15 17 18 20 20 20 20 18 19 22 24 26 27 30 34 38
20 19 17 17 18 17 17 17 17 18 18 17 13 13 14 13 11 10 10 10 11 15 17 20 15 14 14 15 17 18 19 19 20 18 17 19 22 25 27 31 34 38 42
18 19 20 21 20 20 20 22 20 20 19 17 12 13 13 12 10 9 8 10 13 15 17 16 13 13 13 15 15 17 17 18 19 15 17 20 22 24 28 31 35 38 42
24 22 24 25 27 27 27 27 24 21 18 15 11 13 12 11 9 7 8 11 12 14 16 13 11 11 12 13 14 15 16 19 16 16 18 20 22 24 28 31 35 37 41
29 28 27 28 30 31 30 28 26 22 17 13 12 12 11 9 8 6 9 10 12 14 13 11 10 10 11 11 14 15 17 17 14 14 17 19 21 23 27 30 32 33 36
27 28 26 27 30 31 30 27 24 20 15 13 13 11 9 8 7 6 7 8 11 12 10 8 8 9 10 10 12 14 16 16 12 13 16 18 21 23 26 27 28 30 32
27 26 24 22 23 22 21 24 21 17 15 14 14 11 10 8 6 4 5 6 9 9 7 7 7 8 9 9 10 12 14 14 11 13 16 18 20 22 25 26 27 28 30
30 29 27 24 20 20 22 22 20 20 18 17 14 13 10 8 5 3 4 5 7 7 6 6 7 8 6 6 8 11 13 11 10 12 14 17 18 20 23 24 25 26 28
33 33 32 29 23 22 22 22 23 22 18 17 15 14 11 9 5 3 3 4 6 5 5 5 5 4 3 5 7 9 11 10 10 10 12 15 17 19 21 22 24 24 25
35 37 37 34 29 28 27 26 25 22 18 15 17 15 12 9 6 4 1 2 4 3 4 4 3 2 1 3 5 8 9 9 10 9 10 13 15 17 19 20 21 22 24
43 39 39 37 33 32 31 31 27 23 20 19 18 18 14 11 8 6 3 1 3 2 3 4 2 2 1 2 4 7 8 8 8 8 9 10 13 16 16 18 19 20 22
40 37 35 36 36 35 36 33 28 25 22 22 21 19 17 14 10 7 5 3 3 1 3 3 3 2 1 0 2 4 6 6 8 6 6 8 10 13 14 15 16 17 18
32 35 36 37 37 39 38 33 28 25 23 24 25 22 19 15 13 10 7 4 4 2 2 5 4 2 1 2 1 1 3 5 8 7 5 6 8 9 11 12 13 15 15
30 29 31 35 41 41 37 32 28 25 26 27 28 27 24 19 16 13 9 6 6 4 2 5 5 4 2 3 3 1 0 3 6 8 6 6 6 7 10 10 10 11 12
30 29 30 37 41 40 37 33 31 28 29 29 31 29 25 20 18 14 11 8 7 5 4 5 5 5 3 4 5 4 2 2 5 7 7 5 5 5 7 9 8 8 9
27 25 32 36 40 39 37 36 33 31 31 32 35 29 25 23 19 16 13 11 9 8 6 4 4 6 5 6 7 6 4 4 5 8 9 7 5 5 4 6 8 7 6
33 32 36 38 40 41 40 38 36 34 35 37 36 30 27 26 23 19 15 13 12 10 8 6 5 7 6 8 9 9 7 7 7 8 9 10 9 7 6 5 6 6 5
37 39 37 40 39 41 41 40 38 36 39 40 36 32 29 27 25 22 18 15 14 13 11 9 8 8 7 9 11 12 11 9 8 9 10 11 11 9 8 7 6 5 6
Wind_Direction
221 214 210 206 204 207 205 203 202 217 256 286 305 305 309 310 310 311 305 297 315 329 326 328 318 310 316 321 322 328 326 322 322 325 327 331 331 332 335 334 329 326 322
218 210 201 199 193 185 178 181 188 206 247 286 290 300 306 310 314 313 312 315 309 325 319 326 317 308 311 316 317 318 317 322 325 327 332 334 335 337 340 336 332 328 331
213 203 192 183 170 161 163 174 186 209 258 285 299 306 312 315 319 316 315 314 318 319 321 319 302 298 308 309 315 318 326 328 330 334 338 337 337 337 337 337 337 339 339
197 186 174 164 155 154 175 179 186 221 274 299 309 314 314 316 313 313 314 318 318 319 310 304 297 303 312 321 326 326 331 334 337 343 340 337 337 338 342 344 346 346 347
173 166 161 155 160 172 174 181 198 247 288 305 310 313 314 313 306 311 318 330 325 315 313 306 315 324 332 333 329 336 335 340 345 343 340 338 338 344 348 353 359 359 353
164 162 162 166 174 173 183 192 222 258 289 303 310 311 306 313 315 320 328 327 334 334 329 332 338 337 341 332 337 337 341 348 345 346 341 344 348 353 354 357 3 5 4
168 168 170 176 180 186 198 213 242 272 295 308 310 302 307 311 320 329 329 331 334 333 334 336 339 340 339 339 341 344 351 351 350 348 348 349 358 3 0 2 8 6 7
173 175 180 186 189 201 218 234 258 284 301 306 306 295 301 312 324 326 326 326 332 332 336 336 339 340 343 344 346 351 358 358 353 357 353 1 7 6 5 10 9 11 11
182 186 194 201 209 224 240 255 270 288 303 305 298 285 303 315 323 312 321 328 326 330 335 336 343 347 349 347 353 359 3 1 359 4 6 12 13 11 15 19 16 17 20
198 206 216 223 229 237 249 263 275 290 297 299 282 286 305 315 311 307 327 324 327 334 338 342 348 351 350 352 357 3 4 4 6 10 17 20 18 18 23 26 21 19 22
211 218 226 231 237 244 254 265 277 286 291 290 269 294 300 307 292 307 326 318 329 334 338 343 351 352 351 356 2 7 6 9 10 21 30 27 23 25 29 28 25 23 26
233 235 245 249 251 255 261 267 274 281 281 271 267 293 293 288 289 311 317 320 329 333 339 346 353 351 354 359 8 8 10 15 14 31 36 30 30 30 33 30 29 26 30
240 249 251 254 256 258 259 262 267 272 272 251 268 281 277 267 285 302 316 319 326 334 344 350 353 351 357 7 11 11 13 21 26 39 42 37 36 37 36 35 33 31 35
237 242 252 258 254 256 260 257 256 260 247 243 267 266 256 259 270 301 307 316 330 339 345 348 352 355 8 18 11 13 15 27 37 48 49 45 42 40 39 40 41 38 38
247 252 255 260 249 252 248 243 243 243 219 240 258 249 242 244 263 285 291 318 330 340 345 353 359 6 18 19 12 17 22 35 49 52 49 48 44 42 42 44 44 43 42
246 250 257 258 254 245 241 237 232 214 219 243 252 238 234 248 254 254 280 325 337 346 356 357 4 12 19 16 19 18 31 48 61 60 55 53 47 45 46 48 48 48 49
248 248 250 252 247 244 238 229 215 213 228 238 232 229 218 234 229 236 284 352 339 343 356 6 15 11 346 14 22 22 41 62 77 68 63 59 52 49 49 50 53 54 54
254 248 247 246 241 240 234 215 209 216 230 240 227 223 212 215 197 217 261 343 319 339 2 6 7 322 12 30 27 23 47 73 89 81 71 66 60 54 52 52 56 58 56
259 253 247 247 239 233 220 207 210 221 221 216 222 211 206 193 181 194 170 223 273 329 6 360 328 337 41 32 36 27 47 82 93 89 80 74 67 62 56 57 58 62 59
247 244 243 239 235 224 207 206 214 220 217 219 209 202 199 185 179 169 158 192 233 321 9 340 321 333 171 100 39 32 47 90 112 104 90 85 74 69 63 61 66 65 65
240 234 232 232 227 211 204 210 217 219 219 218 207 202 199 191 197 188 176 198 217 254 347 331 317 310 210 207 204 47 58 100 126 135 126 111 100 85 73 63 66 69 64
237 236 230 225 213 203 206 213 218 220 219 216 207 205 202 200 200 193 186 197 219 241 296 309 317 302 258 241 240 246 114 125 140 152 150 135 119 108 97 81 71 75 77
239 244 232 219 208 206 210 214 219 220 219 213 210 212 209 209 206 198 194 197 209 225 246 290 310 286 258 237 235 236 251 182 171 164 165 156 142 136 117 109 92 87 86
237 240 227 218 213 214 216 217 220 220 219 212 210 211 209 210 209 204 201 201 205 214 228 260 288 270 251 237 231 236 249 237 201 181 178 171 181 177 159 130 116 95 87
229 231 233 221 221 220 221 222 222 219 216 209 208 208 210 210 210 209 205 201 206 209 218 228 252 262 240 232 227 231 239 238 225 208 190 184 186 203 192 179 149 135 119
233 233 229 231 228 231 227 225 223 215 215 207 206 209 210 211 211 212 209 203 207 211 212 215 232 246 236 231 229 233 237 238 234 225 210 196 197 205 211 208 199 175 160
Height
3181 3185 3188 3191 3194 3197 3200 3203 3205 3206 3207 3207 3208 3206 3204 3202 3201 3198 3197 3193 3189 3186 3184 3178 3174 3171 3168 3164 3160 3155 3151 3147 3143 3138 3133 3127 3120 3115 3108 3102 3096 3089 3081
3179 3182 3185 3188 3191 3195 3199 3202 3204 3205 3206 3207 3206 3204 3202 3200 3198 3193 3191 3188 3183 3182 3180 3175 3171 3169 3166 3162 3157 3153 3150 3145 3141 3135 3129 3123 3117 3110 3104 3098 3092 3084 3075
3176 3180 3183 3186 3190 3195 3198 3200 3202 3204 3204 3204 3203 3202 3200 3197 3194 3190 3187 3184 3181 3178 3174 3171 3170 3168 3164 3159 3154 3150 3146 3142 3137 3131 3125 3119 3114 3109 3104 3096 3089 3080 3071
3175 3178 3182 3186 3191 3194 3196 3199 3201 3202 3202 3202 3201 3199 3195 3193 3189 3187 3184 3181 3178 3175 3172 3169 3168 3165 3160 3155 3151 3148 3143 3139 3134 3129 3123 3118 3113 3107 3101 3096 3089 3078 3068
3173 3177 3182 3186 3190 3193 3196 3198 3200 3200 3200 3199 3198 3196 3192 3189 3186 3184 3181 3179 3176 3174 3171 3168 3165 3161 3156 3152 3150 3145 3141 3137 3132 3127 3122 3116 3111 3106 3099 3092 3085 3075 3066
3173 3178 3182 3186 3189 3192 3195 3197 3198 3198 3198 3196 3194 3192 3189 3187 3183 3181 3178 3177 3174 3171 3167 3164 3161 3157 3154 3151 3147 3143 3139 3136 3131 3126 3120 3115 3110 3104 3096 3090 3083 3074 3064
3173 3178 3182 3185 3189 3191 3193 3195 3196 3196 3195 3193 3191 3189 3187 3184 3181 3179 3176 3174 3171 3168 3166 3163 3160 3156 3153 3150 3146 3143 3139 3134 3131 3125 3120 3116 3110 3104 3097 3090 3083 3074 3063
3174 3178 3181 3185 3188 3190 3191 3193 3194 3194 3192 3190 3188 3186 3185 3183 3180 3177 3175 3173 3170 3168 3165 3162 3159 3155 3152 3149 3146 3142 3139 3135 3130 3126 3121 3116 3110 3105 3099 3091 3084 3076 3067
3174 3178 3181 3183 3186 3188 3189 3190 3190 3190 3189 3187 3185 3184 3183 3181 3179 3176 3173 3171 3169 3167 3165 3162 3158 3154 3151 3149 3146 3141 3138 3134 3130 3126 3122 3117 3113 3108 3102 3095 3088 3079 3069
3174 3177 3180 3182 3183 3185 3186 3186 3186 3186 3185 3183 3182 3182 3181 3180 3177 3175 3172 3170 3168 3165 3162 3158 3155 3153 3151 3148 3144 3142 3138 3134 3131 3128 3124 3120 3115 3109 3103 3095 3089 3079 3070
3172 3174 3176 3178 3179 3181 3181 3181 3182 3182 3181 3180 3180 3180 3179 3178 3176 3173 3171 3169 3166 3164 3161 3157 3154 3153 3151 3148 3146 3143 3140 3136 3133 3130 3126 3122 3117 3112 3105 3099 3092 3084 3074
3166 3168 3170 3172 3174 3175 3176 3176 3177 3177 3177 3177 3177 3177 3176 3175 3174 3171 3169 3167 3165 3163 3160 3157 3155 3153 3150 3148 3146 3144 3141 3137 3134 3131 3127 3124 3120 3115 3109 3103 3096 3089 3081
3161 3163 3165 3166 3166 3167 3169 3170 3171 3172 3173 3174 3174 3174 3174 3173 3172 3169 3168 3166 3164 3162 3158 3156 3155 3153 3151 3148 3146 3144 3141 3138 3136 3133 3130 3127 3123 3119 3113 3108 3103 3097 3090
3156 3158 3159 3160 3160 3160 3162 3164 3165 3167 3169 3170 3171 3171 3171 3171 3170 3168 3166 3165 3163 3160 3157 3157 3155 3153 3151 3149 3147 3145 3142 3139 3138 3136 3133 3130 3126 3122 3118 3114 3110 3105 3099
3150 3152 3153 3153 3153 3154 3155 3157 3160 3162 3166 3167 3167 3167 3168 3169 3168 3167 3165 3164 3162 3159 3157 3156 3154 3153 3150 3149 3148 3146 3143 3141 3140 3137 3135 3132 3129 3126 3123 3119 3115 3111 3107
3143 3146 3147 3148 3149 3149 3150 3152 3155 3158 3160 3162 3163 3164 3165 3166 3166 3165 3164 3162 3160 3157 3155 3154 3153 3152 3151 3150 3149 3147 3144 3143 3142 3140 3138 3136 3134 3131 3127 3124 3121 3118 3113
3135 3138 3140 3142 3144 3144 3145 3147 3150 3153 3155 3157 3158 3160 3162 3164 3163 3162 3161 3158 3157 3155 3155 3154 3153 3152 3152 3151 3150 3148 3146 3144 3144 3143 3140 3139 3137 3134 3131 3129 3127 3124 3120
3128 3130 3132 3134 3137 3138 3140 3142 3146 3149 3151 3154 3155 3157 3159 3160 3159 3159 3158 3157 3157 3154 3154 3153 3153 3153 3152 3151 3150 3148 3147 3145 3146 3145 3144 3142 3140 3138 3136 3134 3132 3130 3127
3118 3121 3123 3127 3128 3130 3133 3137 3140 3144 3147 3149 3151 3153 3156 3157 3156 3157 3156 3156 3156 3154 3153 3152 3153 3153 3151 3150 3149 3148 3147 3146 3147 3147 3147 3145 3143 3142 3140 3138 3137 3136 3133
3108 3111 3113 3117 3120 3122 3126 3130 3134 3138 3142 3144 3147 3150 3153 3152 3154 3155 3154 3155 3154 3152 3151 3151 3151 3150 3150 3149 3149 3148 3147 3147 3147 3148 3149 3147 3146 3144 3144 3143 3141 3140 3139
3098 3100 3103 3107 3111 3115 3120 3124 3129 3133 3137 3139 3143 3146 3149 3149 3151 3151 3151 3151 3151 3150 3150 3150 3149 3149 3149 3149 3149 3147 3146 3146 3147 3149 3150 3150 3149 3147 3146 3146 3145 3144 3143
3090 3091 3095 3098 3103 3108 3114 3118 3123 3128 3131 3133 3137 3140 3142 3144 3146 3147 3147 3148 3149 3148 3147 3147 3147 3146 3147 3148 3148 3147 3146 3145 3146 3148 3150 3150 3151 3150 3148 3148 3148 3148 3146
3086 3087 3088 3092 3097 3102 3106 3111 3116 3121 3124 3127 3131 3134 3137 3139 3141 3142 3143 3145 3145 3144 3144 3145 3144 3144 3145 3146 3147 3147 3146 3146 3146 3147 3149 3150 3151 3151 3151 3149 3150 3151 3150
3078 3079 3082 3086 3090 3095 3100 3104 3109 3113 3116 3120 3125 3128 3131 3134 3136 3137 3139 3140 3141 3141 3140 3141 3142 3142 3142 3143 3144 3144 3145 3145 3144 3145 3147 3149 3151 3151 3152 3151 3150 3152 3152
3071 3073 3075 3079 3083 3087 3090 3094 3098 3103 3107 3112 3117 3120 3125 3128 3130 3131 3132 3135 3136 3136 3137 3136 3137 3139 3139 3141 3141 3141 3142 3143 3144 3144 3145 3147 3148 3151 3151 3152 3151 3151 3153
3063 3066 3067 3070 3074 3077 3081 3084 3088 3093 3098 3103 3108 3113 3117 3121 3123 3125 3127 3128 3130 3130 3131 3132 3133 3133 3134 3136 3137 3137 3139 3139 3140 3141 3142 3144 3146 3148 3150 3151 3151 3151 3151